Regional Weather Roundup
Issued by NWS

Home | Current Version | Previous Version | Graphics & Text | Print | Product List | Glossary Off
Versions: 1 2 3 4 5 6 7 8 9 10 11 12 13 14 15 16 17 18 19 20 21 22 23 24 25 26 27 28 29 30 31 32 33 34 35 36 37 38 39 40 41 42 43 44 45 46 47 48 49 50

000
ASUS45 KBOU 260307
RWRCO

WEATHER ROUNDUP FOR COLORADO
NATIONAL WEATHER SERVICE DENVER/BOULDER CO
900 PM MDT MON MAY 25 2015

NOTE: "FAIR" INDICATES FEW OR NO CLOUDS BELOW 12000 FEET WITH NO
SIGNIFICANT WEATHER AND/OR OBSTRUCTIONS TO VISIBILITY.

COZ001>005-013-030-031-260400-
...NORTHWEST COLORADO...

CITY           SKY/WX    TMP DP  RH WIND       PRES   REMARKS
CRAIG          CLOUDY   N/A N/A N/A CALM      30.04R
HAYDEN         CLOUDY    48  41  76 SW6       30.05R
MEEKER         CLOUDY    52  44  74 S3        30.05R
MOUNT WERNER   NOT AVBL
STEAMBOAT SPGS CLOUDY    45  41  85 W15G24    30.07R
WALDEN         MOCLDY    37  34  87 N5        30.06F
$$

COZ006>008-011-260400-
...WEST CENTRAL VALLEYS...

CITY           SKY/WX    TMP DP  RH WIND       PRES   REMARKS
GRAND JUNCTION PTCLDY    57  45  64 N6        29.96R
MONTROSE       MOCLDY    55  42  61 SE9       30.05R
EAGLE          CLOUDY    52  45  76 E5        30.08R
RIFLE          CLOUDY    56  44  64 NW5       30.02R
DELTA          PTCLDY    59  46  61 MISG      30.00R
NUCLA          PTCLDY    54  43  66 E5        30.09R
$$

COZ017>023-064>068-260400-
...SOUTHWEST COLORADO...

CITY           SKY/WX    TMP DP  RH WIND       PRES   REMARKS
DURANGO        PTCLDY    51  39  63 CALM      30.07R
CORTEZ         MOCLDY    51  45  79 CALM      30.06R
PAGOSA SPRINGS PTCLDY    45  43  92 CALM      30.11R
TELLURIDE      MOCLDY    42  38  88 CALM      30.19R
WOLF CREEK PAS NOT AVBL
$$

COZ009-010-012-014-032>034-037-058>063-260400-
...CENTRAL COLORADO...

CITY           SKY/WX    TMP DP  RH WIND       PRES   REMARKS
ASPEN          CLOUDY    47  38  71 SE6       30.09R
BUENA VISTA    PTCLDY    50  31  48 NW14G20   30.06R
COPPER MTN     CLOUDY    34  30  86 W15       30.23S THUNDER WCI  24
BERTHOUD PASS  HAZE      27  19  74 NW12      30.25R THUNDER VSB 1/2
COTTONWOOD PAS PTCLDY    45  28  53 W16G26    30.13R THUNDER
GUNNISON       PTCLDY    48  34  57 NW6       30.11R
KREMMLING      CLOUDY    50  36  57 SW10G16   30.08R
LEADVILLE      CLOUDY    36  35  96 NE8       30.15S
SALIDA         MOCLDY    54  31  42 SW8       30.11R
SUNLIGHT       LGT RAIN  36  36 100 CALM      30.24R VSB 1/4
WILKERSON PASS CLOUDY    34  30  86 NE7       30.22R WCI  28
$$

COZ069>075-260400-
...SAN LUIS VALLEY/SANGRE DE CRISTO MOUNTAINS...

CITY           SKY/WX    TMP DP  RH WIND       PRES   REMARKS
ALAMOSA        CLOUDY    50  38  63 W5        30.05R
LA VETA PASS   PTCLDY   N/A N/A N/A MISG      30.15R
SAGUACHE       MOCLDY    50  34  53 N6        30.08R
$$

COZ035-036-038>040-260400-
...NORTHERN COLORADO FRONT RANGE...

CITY           SKY/WX    TMP DP  RH WIND       PRES   REMARKS
DENVER INTL AP CLOUDY    53  45  74 VRB5      29.99R
DMNS CITY PARK   N/A     51  49  92 S2        30.00R
AURORA         NOT AVBL
FRONT RANGE AP MOCLDY    54  48  82 CALM      30.00R
ERIE MUNI ARPT CLOUDY    51  49  93 SW5       29.97S
BOULDER MUN AP CLOUDY    52  50  93 CALM      29.98R
CENTENNIAL     LGT RAIN  49  47  93 SE8       30.01R
BROOMFIELD     MOCLDY    50  48  93 CALM      30.00R
FORT COLLINS   CLOUDY    52  46  82 CALM      29.99R
LONGMONT       CLOUDY    53  50  90 CALM      29.99R
$$

COZ041-046-047-076>085-087-088-260400-
...PIKES PEAK/PALMER DIVIDE AND SOUTHERN FOOTHILLS...

CITY           SKY/WX    TMP DP  RH WIND       PRES   REMARKS
COLO. SPRINGS  MOCLDY    50  45  83 E3        30.01R
A. F. ACADEMY  MOCLDY    50  43  76 NE1       30.03R
ELLICOTT       NOT AVBL
FALCON         CLOUDY    47  43  84 CALM      30.04R THUNDER
FORT CARSON    NOT AVBL
LIMON          CLOUDY    51  47  86 N6        29.98R
MONUMENT HILL  NOT AVBL
TRINIDAD       MOCLDY    52  46  80 E6        29.97R
$$

COZ042>045-048>051-090-091-260400-
...NORTHEAST COLORADO...

CITY           SKY/WX    TMP DP  RH WIND       PRES   REMARKS
GREELEY ARPT   MOCLDY    52  46  82 N6        29.96R
AKRON          CLOUDY    49  47  93 W7        29.95R
BURLINGTON     PTCLDY    55  46  71 N7        29.92R
WRAY           MOCLDY    53  48  82 NW6       29.91R
STERLING       CLOUDY    52  46  82 N6        29.91R
HOLYOKE        NOT AVBL
FORT MORGAN    CLOUDY    55  45  69 CALM      29.95S
$$

COZ086-089-092>099-260400-
...SOUTHEAST COLORADO...

CITY           SKY/WX    TMP DP  RH WIND       PRES   REMARKS
PUEBLO         MOCLDY    54  47  77 N9        29.94R
LA JUNTA       MOCLDY    61  51  70 W7        29.90R
LAMAR          MOCLDY    59  52  77 E5        29.87R
SPRINGFIELD      N/A     53  47  79 N7        29.91R
$$


USA.gov is the U.S. government's official web portal to all federal, state and local government web resources and services.